Theta_e
287 287 287 287 282 282 281 280 280 279 280 279 277 279 282 283 279 278 283 282 280 283 287 289 289 289 289 289 289 289 288 287 283 280 279 278 277 276 275 275 275 275 275 275 275 274 274 274 273 273 272 271 271 270 270 269 269 268 268 267 267 266 266 266 266 266 266 266 267 266 266 265 265 264 263 263 262 262 262 262 262 262 262 262 262 262 263
286 286 286 286 283 281 281 280 280 282 281 280 280 281 283 282 282 284 284 284 283 286 288 289 290 290 288 287 287 286 285 285 284 282 281 279 278 276 275 276 275 275 275 275 275 274 274 274 273 272 271 270 270 269 268 268 268 268 267 267 266 266 266 266 266 266 266 266 266 265 264 264 263 263 262 261 261 260 261 261 261 262 262 262 262 262 262
283 285 286 285 283 282 281 282 282 282 282 281 281 281 282 283 282 283 283 282 282 287 290 289 290 290 289 286 287 289 289 289 289 287 284 281 279 277 277 277 276 276 275 275 275 274 274 274 273 272 271 270 269 268 268 267 267 267 266 265 265 265 265 265 265 265 265 265 264 263 263 262 261 261 260 260 260 260 260 260 260 261 261 262 262 263 263
281 285 284 284 282 281 281 281 283 283 283 280 281 280 282 281 280 282 281 280 281 287 289 286 288 288 287 287 289 289 290 290 288 288 288 285 282 279 278 277 276 275 275 275 275 274 274 274 272 271 270 269 268 267 267 267 266 266 265 265 264 264 265 264 265 264 264 263 262 262 261 260 260 259 259 259 259 259 259 259 260 261 261 262 263 263 264
279 284 284 280 280 279 277 280 283 285 285 285 285 285 285 283 283 280 279 281 287 288 289 287 287 285 283 286 288 289 289 288 287 288 289 289 285 283 280 278 277 276 275 275 275 275 275 273 272 271 270 268 268 267 266 266 266 265 264 264 264 264 264 264 264 263 262 262 261 260 260 259 259 258 258 258 258 258 259 260 260 260 261 262 262 263 263
279 283 281 280 278 273 276 287 287 288 285 285 283 284 285 286 284 283 286 286 288 289 288 287 287 288 288 290 291 291 290 289 288 289 289 287 287 285 282 280 278 277 276 276 276 275 275 273 272 270 269 268 267 267 266 265 264 264 264 264 263 263 263 263 262 262 261 260 259 259 259 258 258 258 257 258 258 259 259 260 260 261 261 262 262 262 262
279 279 278 276 272 275 286 286 285 287 286 286 286 286 286 286 287 286 286 286 287 289 290 289 289 290 291 291 291 292 287 287 289 290 290 285 285 285 282 279 278 277 276 276 275 274 273 271 270 269 268 267 266 265 265 264 264 263 263 263 263 263 262 262 261 260 260 259 258 258 257 257 257 257 257 258 258 259 259 260 260 260 261 261 261 261 261
275 274 277 272 273 283 285 286 288 289 285 284 281 282 285 285 286 287 286 288 289 290 290 290 291 290 291 292 291 290 285 287 289 290 289 289 287 284 283 281 278 277 276 275 275 274 272 269 268 268 267 266 265 264 264 264 263 263 263 262 262 262 261 261 260 260 259 258 257 257 257 257 256 257 257 258 258 259 259 260 261 261 261 261 261 261 261
277 277 277 277 283 283 284 285 286 286 283 284 283 280 284 288 288 288 287 288 289 289 290 290 291 291 289 287 289 288 286 289 289 289 289 289 288 285 283 282 280 278 277 276 275 271 269 268 267 267 266 265 264 263 263 263 263 263 262 262 262 261 260 260 259 258 258 257 256 256 256 256 256 256 257 257 258 259 259 259 260 260 260 260 261 261 261
284 278 276 277 277 274 280 286 290 287 287 287 286 284 283 289 290 291 288 288 288 289 289 289 290 286 284 285 287 292 289 288 289 286 287 286 284 282 280 278 278 277 276 274 270 269 268 267 267 266 265 264 263 262 262 262 262 262 262 261 261 260 259 259 258 258 257 256 256 256 255 255 256 257 257 258 258 259 259 258 259 259 260 260 261 261 261
282 279 276 275 274 277 285 286 289 287 285 286 282 280 279 288 291 291 291 289 290 289 289 289 287 283 284 284 288 291 289 284 285 285 283 281 279 279 278 277 276 275 272 270 269 268 267 266 265 265 264 264 263 262 262 262 262 261 261 260 260 259 259 259 258 257 256 256 256 255 255 255 256 255 256 257 258 259 259 259 259 259 260 260 260 261 261
280 279 277 275 280 279 285 288 289 283 283 285 283 275 278 289 291 291 291 289 290 289 289 290 287 285 283 286 289 290 284 283 281 282 280 277 277 276 276 276 275 272 270 269 267 267 266 265 265 264 263 263 263 262 262 262 261 260 260 260 260 259 258 257 257 256 256 255 255 255 255 255 255 256 257 257 258 258 258 259 258 259 259 260 260 261 262
280 281 278 280 281 287 287 288 283 283 287 287 278 275 283 291 288 290 289 290 290 290 289 288 286 287 290 292 289 276 277 277 276 276 276 277 276 275 274 273 273 270 269 268 267 267 266 265 264 263 263 263 262 262 262 261 260 260 260 259 258 258 257 256 256 255 255 255 254 254 255 255 256 256 257 257 257 257 257 258 258 258 259 260 261 263 265
278 279 278 277 282 287 291 290 283 287 285 277 278 287 293 292 284 285 289 289 289 289 289 288 288 290 290 290 277 277 277 278 275 275 274 273 273 273 273 272 270 269 268 267 266 265 264 263 263 263 263 262 261 261 261 260 260 260 259 258 257 256 255 255 255 254 253 254 254 254 254 255 255 255 257 257 257 257 257 257 257 258 259 262 263 264 265
281 280 277 276 274 285 293 286 283 285 284 284 291 292 292 292 290 289 285 287 288 288 288 288 288 289 288 285 282 280 277 276 274 273 273 272 271 270 270 269 269 269 267 266 265 264 263 263 262 263 263 262 261 261 260 260 259 259 257 257 256 255 254 254 253 253 253 253 253 254 254 255 255 255 256 256 256 256 256 257 257 258 261 263 263 263 265
277 277 275 276 284 289 292 288 284 285 290 293 293 292 291 293 292 291 290 288 288 288 288 288 287 287 286 281 280 279 277 276 274 273 273 272 271 270 269 269 269 268 266 265 264 263 262 262 262 263 262 261 260 260 260 259 258 257 256 255 254 254 253 253 252 252 252 253 253 253 253 254 254 254 254 255 255 256 256 257 258 259 261 262 263 264 264
284 281 284 288 290 291 291 292 292 292 292 293 293 293 293 292 292 292 291 291 289 287 288 288 287 286 285 284 282 280 279 276 274 273 273 272 270 269 269 268 269 267 265 263 262 262 262 262 262 262 262 261 260 259 259 259 257 255 254 253 252 252 251 251 251 251 252 253 253 252 253 253 253 254 254 254 254 256 256 257 259 260 261 262 263 264 264
291 292 291 288 289 290 289 292 294 293 292 292 292 292 291 291 292 292 289 290 289 287 287 287 287 287 287 284 282 281 279 276 275 274 272 271 270 269 268 268 267 266 264 263 262 261 261 261 261 261 261 261 259 259 258 258 256 255 253 251 251 250 250 251 251 251 252 252 253 253 253 253 253 253 254 254 255 255 257 258 259 260 260 262 264 263 264
287 282 291 289 289 291 290 290 291 293 293 293 292 291 291 292 292 290 287 288 287 286 286 287 289 288 286 285 284 281 279 276 274 273 272 271 269 268 267 267 266 264 263 261 261 260 259 260 259 259 259 260 259 258 257 256 255 253 251 251 251 251 250 250 251 251 252 253 253 253 253 253 253 254 254 254 255 257 258 259 259 260 261 263 263 263 263
286 286 290 291 292 292 292 291 290 289 290 291 292 292 292 292 292 291 289 287 286 286 286 287 288 288 287 285 283 280 278 276 274 272 271 269 268 268 268 266 265 263 262 262 260 259 259 259 259 258 258 257 257 256 256 255 253 252 251 252 250 250 250 251 251 251 251 254 253 253 252 252 253 253 254 255 256 258 259 260 260 261 263 263 263 263 263
288 291 291 291 291 290 291 291 290 291 292 291 291 291 291 290 288 288 287 287 289 287 288 288 287 287 287 286 284 281 279 276 273 272 271 269 268 267 266 265 264 263 262 261 260 260 259 258 258 257 256 256 256 255 254 253 252 252 252 252 251 250 251 251 251 251 251 251 252 252 252 251 252 253 254 255 257 259 262 263 263 264 264 264 264 265 265
285 285 288 291 286 286 290 291 291 290 291 291 291 291 290 289 289 290 290 288 287 287 288 288 287 287 288 286 284 281 279 276 274 273 270 269 267 266 266 264 264 263 262 261 260 259 258 258 257 256 255 255 255 255 253 252 252 251 251 250 250 251 251 251 250 251 251 252 252 252 252 252 252 253 257 262 262 261 261 265 268 269 268 265 265 266 265
285 290 292 293 292 292 293 294 294 293 292 291 290 290 291 291 290 290 290 289 289 286 286 287 287 287 288 288 284 282 279 277 275 273 269 267 266 265 264 263 263 262 262 261 260 258 257 257 256 255 254 254 254 254 253 252 252 251 251 251 251 251 251 250 252 251 251 252 252 252 252 252 252 252 253 254 260 263 265 266 266 268 268 268 269 269 267
291 293 292 290 291 290 292 294 294 294 293 291 291 292 292 292 292 291 290 289 289 289 288 287 287 287 288 288 284 282 280 277 274 272 270 268 267 265 264 263 263 262 261 260 259 258 257 256 255 254 254 254 253 253 253 252 252 251 251 251 251 251 251 251 253 253 252 252 252 251 251 252 252 252 251 252 253 260 264 264 265 266 267 267 268 268 269
290 294 294 294 293 292 294 295 294 294 294 293 292 291 292 292 292 292 291 290 289 289 289 289 287 286 286 287 283 282 280 276 274 272 269 267 266 264 263 263 262 261 260 260 259 258 256 255 255 254 253 253 253 253 252 252 251 250 251 251 251 250 251 252 252 253 252 252 252 251 250 250 250 250 251 250 250 251 254 262 264 264 264 265 266 267 268
294 294 295 294 293 294 294 294 292 292 293 292 291 291 291 291 292 292 291 291 290 289 288 288 288 286 285 285 282 281 278 274 272 271 268 266 264 263 263 262 262 262 261 260 258 257 256 255 254 253 253 252 252 252 252 252 251 250 251 251 251 251 251 252 252 252 252 252 251 251 251 251 250 252 251 251 250 250 250 250 252 257 261 263 264 265 266
293 294 292 290 289 291 293 291 291 294 294 294 294 293 293 293 291 291 291 290 290 290 289 288 288 287 283 283 281 279 276 272 271 269 267 265 263 263 263 263 262 262 260 258 257 256 255 254 254 253 253 253 252 252 251 251 250 250 250 251 251 252 253 253 252 252 253 253 252 251 250 250 251 251 250 251 252 250 249 249 249 250 251 253 257 262 262
290 291 292 288 288 290 291 293 294 294 295 295 295 294 293 291 289 288 288 288 288 287 287 287 286 282 280 279 278 276 273 270 269 268 266 265 264 264 264 263 262 261 259 257 256 255 255 254 254 253 252 252 252 251 250 250 250 250 251 252 252 253 253 253 253 253 252 251 252 250 250 251 252 251 252 251 250 249 250 250 249 249 250 251 252 257 262
287 288 289 290 291 292 293 294 294 293 293 294 294 292 289 288 287 287 288 289 289 288 286 282 282 282 282 278 278 276 273 271 269 267 266 265 264 264 263 262 261 259 258 256 255 255 254 254 253 252 252 251 251 250 249 250 250 250 250 251 252 253 253 253 252 252 251 250 249 250 253 252 251 250 250 249 249 248 248 247 249 250 250 249 251 252 256
288 289 289 289 290 290 290 290 291 292 292 293 293 292 291 289 287 287 288 288 287 286 285 284 280 280 280 278 277 276 273 271 270 269 266 264 263 263 262 261 259 258 256 255 254 254 254 254 253 252 251 251 250 249 249 249 249 250 251 252 252 252 252 252 252 251 251 250 250 252 250 251 250 247 247 247 247 247 247 247 249 249 248 249 252 250 251
287 288 288 288 288 289 289 289 290 291 291 292 292 292 292 291 289 289 289 288 286 285 284 282 280 280 279 278 278 276 274 272 269 267 265 263 262 261 260 259 257 255 255 255 254 254 254 253 252 252 251 251 250 249 249 249 249 250 250 251 251 256 257 256 254 250 248 248 249 247 247 247 246 247 248 247 246 246 246 246 246 247 248 248 248 249 250
284 285 285 286 287 287 287 288 288 289 289 290 289 289 289 289 287 287 288 288 286 284 284 282 280 279 279 278 275 272 271 269 267 265 263 262 261 260 259 260 259 259 257 255 254 254 254 253 252 251 251 250 249 249 249 250 250 250 250 250 251 254 256 257 254 252 249 248 247 246 246 246 245 246 245 246 245 245 245 245 246 247 247 247 247 248 249
280 281 283 284 285 285 286 287 287 287 288 288 289 290 289 287 287 288 288 288 287 284 282 281 280 280 276 274 273 271 269 267 265 264 262 261 260 259 260 262 261 259 257 255 255 255 254 253 252 251 250 250 250 250 250 250 251 250 251 251 252 253 254 255 253 250 248 247 245 245 244 245 245 243 243 246 245 245 244 244 246 246 246 246 247 247 249
272 273 276 280 282 283 283 283 285 286 287 288 289 289 289 288 288 288 288 288 287 284 280 280 279 276 274 272 270 268 265 263 262 262 262 261 260 259 261 261 260 257 255 255 255 254 254 252 251 250 251 250 250 250 250 250 250 248 249 250 250 250 250 249 249 247 246 245 245 246 244 245 244 244 245 245 244 243 245 245 245 246 246 246 246 247 251
270 272 274 276 279 282 285 285 286 286 286 286 287 288 289 289 288 288 287 287 286 284 283 281 277 274 272 270 268 266 265 264 264 263 262 261 260 260 259 256 255 254 254 254 254 253 252 251 251 251 250 250 250 250 249 248 248 247 248 248 248 248 247 247 246 246 245 244 243 242 243 243 243 246 246 244 243 243 243 244 245 246 246 245 246 247 248
267 268 270 272 275 278 280 283 285 286 287 287 287 287 288 288 288 288 287 287 287 284 280 277 274 272 270 269 267 266 266 266 264 262 261 260 260 259 257 254 253 253 252 252 253 252 251 251 251 251 250 250 249 249 249 248 248 247 248 248 248 247 247 246 245 244 244 242 243 243 242 245 245 245 245 243 242 241 242 242 243 243 244 245 245 246 246
265 265 267 268 270 274 277 280 283 285 286 286 287 287 287 288 288 288 287 286 281 278 277 275 273 270 269 269 269 268 268 265 263 262 261 260 259 258 256 254 254 252 252 251 251 251 251 251 251 250 250 250 249 248 248 248 247 247 247 247 247 246 246 244 243 243 242 242 242 241 244 243 240 240 243 241 241 241 242 242 243 243 244 244 245 245 245
262 263 264 265 267 270 274 279 282 284 285 285 286 286 286 287 287 286 283 279 278 277 276 274 273 272 270 268 268 267 265 264 262 261 260 259 259 258 257 256 254 253 252 251 251 251 251 251 251 250 250 249 249 248 248 248 247 247 247 247 246 246 245 245 244 243 241 239 242 240 240 240 239 238 239 239 239 240 242 243 243 244 244 244 243 244 245
260 261 262 264 265 267 270 275 280 283 284 284 285 285 285 284 283 281 278 277 276 274 273 272 270 268 267 267 266 264 263 262 261 260 259 258 259 258 257 256 255 256 255 252 251 251 251 251 251 250 249 249 249 249 248 248 247 246 246 246 245 245 245 244 244 243 242 242 239 239 238 240 241 240 240 240 240 242 243 244 244 244 244 243 243 243 243
258 259 260 262 262 264 268 273 278 281 282 282 282 283 281 278 277 275 273 271 271 271 271 269 268 267 266 267 265 263 262 261 260 259 259 258 258 257 255 253 253 252 251 251 251 251 251 250 250 250 250 250 249 248 248 247 246 246 246 245 245 244 244 243 242 242 241 240 241 244 239 240 240 241 241 241 240 241 240 241 242 242 243 243 242 242 243
257 258 259 260 261 263 266 271 276 278 275 276 278 278 277 276 274 272 270 270 270 270 269 269 268 267 267 266 264 262 261 259 259 259 259 258 257 255 255 252 252 251 251 251 251 251 250 250 250 250 250 250 249 248 248 247 246 246 246 245 244 244 243 243 242 242 241 240 241 238 238 239 240 239 240 240 240 239 240 241 242 242 242 242 243 243 243
256 257 258 259 261 263 268 273 275 273 271 271 271 272 272 272 272 270 269 269 269 269 269 269 267 267 266 263 261 259 258 258 259 259 259 259 259 258 254 251 251 251 251 251 251 250 250 250 250 250 250 249 249 248 247 247 246 246 246 245 244 244 243 243 242 240 240 239 238 236 238 239 238 238 240 240 239 240 242 244 245 244 245 244 243 242 242
256 257 258 259 261 266 272 272 271 269 269 269 269 269 269 269 269 269 268 268 268 268 268 267 265 263 261 259 258 257 257 257 258 258 256 255 256 259 255 250 251 251 251 251 250 250 250 250 250 250 249 249 249 248 247 247 246 246 246 245 245 244 244 243 241 241 240 238 237 236 236 238 237 237 239 238 239 242 243 244 244 243 242 243 242 242 242
257 258 260 263 268 271 270 270 269 268 267 266 267 268 268 268 268 268 268 268 267 267 266 264 263 261 260 259 258 257 256 257 258 258 256 253 251 251 252 251 251 251 251 250 250 250 250 250 250 249 249 248 248 247 247 247 246 246 245 245 245 245 244 242 241 240 240 240 240 238 239 240 239 238 238 238 238 242 242 242 243 243 244 243 242 242 242
257 259 262 264 266 267 267 266 265 264 264 265 265 265 266 266 266 267 267 267 266 265 264 263 261 260 259 259 258 258 258 259 259 258 255 252 250 249 250 251 251 250 250 250 250 250 249 250 249 249 248 248 247 247 247 247 246 246 245 245 244 244 244 243 242 241 240 240 241 242 240 239 238 240 238 240 241 240 241 242 242 242 242 241 242 242 242
257 259 262 264 264 263 264 264 264 264 264 263 262 262 263 263 263 263 263 263 262 262 262 261 260 259 258 258 258 258 258 255 253 254 256 258 254 250 250 251 250 250 249 249 249 249 249 249 249 249 248 248 247 247 247 246 246 245 245 244 244 243 243 243 242 241 240 240 240 239 239 240 239 238 238 237 237 239 240 242 242 241 240 240 240 241 242
256 258 260 261 263 264 264 264 264 263 262 260 258 258 259 259 259 259 260 260 260 260 260 260 259 258 259 258 258 257 256 253 252 252 251 250 250 250 250 250 250 249 249 249 249 249 249 249 249 248 248 247 247 246 246 245 245 244 244 243 243 243 243 242 240 240 239 239 239 240 240 239 238 237 238 239 239 239 239 239 239 240 240 241 241 242 242
256 257 258 259 260 260 261 260 259 258 257 257 257 257 258 258 258 257 258 258 258 257 257 257 257 258 259 259 259 259 258 256 251 250 250 250 250 250 250 250 249 249 249 249 248 249 249 249 248 248 247 247 246 246 245 245 244 243 243 243 243 243 242 240 239 239 238 239 239 239 238 238 238 237 237 237 238 238 238 238 239 239 240 240 240 240 241
256 256 257 258 258 258 258 257 257 257 256 257 257 257 257 257 256 256 256 256 256 256 256 256 256 256 255 255 255 255 254 254 254 250 250 251 250 250 249 249 249 249 249 248 248 248 249 249 248 247 246 246 246 245 245 244 244 243 243 243 242 242 241 241 239 238 238 237 238 238 238 238 237 236 236 237 238 237 238 239 239 238 238 239 240 241 241
256 256 255 255 255 255 256 256 256 256 257 257 257 258 258 257 255 255 255 255 255 255 254 254 254 253 253 253 252 252 252 252 251 251 251 250 250 250 249 249 249 249 249 248 248 248 248 248 247 246 245 245 244 244 244 244 244 244 243 242 243 240 240 240 241 240 238 238 238 238 238 238 237 238 238 237 237 238 238 239 238 240 242 242 240 241 240
255 255 255 255 255 255 256 256 256 256 256 256 256 256 256 255 255 255 255 255 254 254 253 254 253 253 252 252 252 252 251 251 251 251 250 250 250 250 249 249 249 249 249 248 248 248 248 247 246 245 244 244 244 244 244 244 244 244 243 243 243 241 241 242 240 240 239 238 238 238 238 238 237 236 236 238 238 238 238 239 239 238 238 238 239 239 239
256 256 255 256 255 255 255 255 256 256 256 256 256 256 255 255 254 254 255 255 255 254 253 252 250 252 252 252 251 251 251 251 251 250 250 250 250 249 249 249 249 249 249 248 248 248 248 247 246 245 245 245 244 244 244 244 244 243 243 243 243 242 241 241 240 239 239 240 239 238 239 238 237 238 238 237 238 239 239 238 239 238 239 239 239 239 239
Wind_Speed
22 21 24 25 9 12 12 13 14 16 19 16 21 27 31 19 15 27 28 12 9 20 30 38 27 18 15 17 17 15 13 10 6 4 7 10 11 9 10 14 13 14 14 16 16 14 13 12 13 12 10 9 8 7 7 7 6 6 6 6 5 4 4 3 3 2 2 2 2 3 4 5 6 7 7 7 8 8 8 9 9 10 12 13 16 15 14
18 22 26 23 18 9 8 8 13 18 20 22 25 28 29 30 31 27 21 17 22 24 34 29 19 16 9 9 8 8 6 7 6 9 9 10 10 12 15 16 16 16 16 15 15 15 14 14 14 13 9 9 9 9 8 7 7 6 6 6 5 4 4 3 2 2 2 2 2 4 5 6 6 7 7 7 7 8 8 9 9 10 12 13 13 14 15
16 21 23 19 16 15 17 16 13 21 24 14 20 27 30 32 23 22 24 21 23 29 32 20 15 20 13 7 15 21 20 15 14 13 11 11 13 14 15 14 15 15 14 13 13 15 17 15 14 11 10 9 9 8 8 8 7 6 6 5 5 4 3 3 1 1 1 2 4 5 5 5 6 6 7 7 7 8 8 8 9 10 11 13 13 14 15
16 16 20 16 8 12 14 15 21 31 27 19 20 24 26 13 15 20 16 18 24 29 23 6 13 17 14 15 20 22 19 16 12 14 16 13 13 14 15 15 13 13 14 16 17 19 18 16 13 12 11 10 10 9 9 8 7 6 6 5 5 4 3 2 1 1 2 3 4 4 5 6 6 6 6 7 7 7 7 9 9 9 11 12 13 13 13
17 17 11 4 5 2 5 15 31 32 21 20 27 26 20 15 15 14 18 26 24 24 15 14 16 10 7 13 19 19 17 14 11 16 19 18 12 14 14 13 15 16 17 19 20 18 15 14 12 12 12 12 11 10 10 9 7 7 6 6 5 4 3 2 1 2 3 3 4 4 5 6 6 6 6 6 6 7 8 8 9 11 11 12 12 13 14
12 15 9 6 5 13 20 16 3 11 25 24 24 27 24 15 12 16 19 24 26 27 24 22 22 19 18 20 20 18 15 12 12 17 16 15 12 11 11 14 15 15 14 12 13 15 15 13 11 10 11 11 10 9 9 9 8 7 7 6 5 4 3 2 3 3 3 3 4 5 5 6 6 6 6 6 6 6 7 8 10 10 11 13 13 13 14
12 4 9 6 16 20 13 2 5 11 11 14 25 23 16 15 15 19 23 25 29 32 28 23 21 21 23 23 24 24 7 8 14 20 19 11 12 13 11 11 11 13 15 13 12 13 14 16 14 12 10 10 10 10 9 9 7 7 6 6 5 4 3 3 3 2 2 3 4 5 6 6 6 6 5 6 6 7 8 9 10 10 11 12 12 12 12
3 3 10 15 21 4 2 8 15 16 5 10 6 15 13 10 17 22 22 23 28 31 28 22 19 20 20 21 22 17 7 14 18 19 17 14 12 12 12 13 14 14 15 18 20 16 13 13 12 11 12 11 11 10 8 8 8 7 6 6 5 4 4 3 3 2 1 2 4 5 6 6 5 5 5 6 7 7 8 8 9 9 11 11 12 12 13
16 13 15 21 6 12 14 15 22 17 11 14 14 17 16 13 20 24 20 22 28 25 21 23 22 17 11 13 21 8 15 18 18 16 15 15 12 12 11 12 13 15 14 14 14 16 16 14 14 11 11 10 10 10 9 7 7 7 6 5 5 5 4 3 3 2 1 3 5 6 5 6 5 5 6 7 7 7 8 9 11 10 11 11 11 12 13
13 15 13 10 10 17 18 28 32 5 9 10 7 8 14 12 29 25 17 23 25 23 23 22 19 3 6 16 19 19 11 15 13 10 13 10 6 6 6 7 9 11 11 12 16 17 16 14 10 11 11 11 10 9 8 8 8 7 6 6 6 5 4 3 3 1 1 3 5 6 5 4 5 5 5 6 7 7 8 10 11 11 11 11 10 10 13
9 13 13 14 14 17 13 22 23 10 8 9 3 2 17 20 32 21 22 22 23 26 23 20 7 4 12 15 18 17 9 6 9 10 9 6 6 8 11 14 14 15 17 18 17 15 16 16 12 11 11 11 9 9 8 8 7 7 6 6 5 5 4 4 3 1 2 4 5 6 5 4 3 5 6 7 7 7 7 9 11 11 11 11 11 10 12
14 15 14 16 9 12 11 16 15 5 7 11 6 9 17 29 26 21 23 21 24 23 18 15 10 11 14 15 18 11 3 5 5 8 8 8 8 8 9 8 14 17 18 18 16 16 16 15 13 13 10 9 11 10 9 8 7 7 7 6 6 6 5 4 2 2 4 5 5 5 5 4 3 3 5 6 7 8 7 7 10 11 10 10 13 13 13
22 22 17 11 9 8 7 14 2 11 10 10 6 19 24 22 9 15 13 20 21 16 15 13 12 16 19 18 10 7 5 5 2 2 3 5 9 13 12 13 14 20 14 16 17 17 12 13 13 11 11 13 10 8 9 8 7 7 7 7 6 5 4 3 3 3 4 5 6 6 4 3 3 4 4 6 7 7 7 8 8 10 11 12 12 12 11
16 17 19 19 13 6 11 10 17 11 8 8 17 25 26 16 4 7 14 16 15 13 17 13 14 15 17 13 4 5 5 7 6 6 8 9 8 7 11 15 21 17 17 17 17 14 10 12 11 11 12 13 10 9 8 8 8 8 7 7 6 5 4 3 3 4 5 5 5 4 3 1 3 4 4 4 5 6 7 8 10 12 12 10 11 12 12
9 10 13 10 12 9 25 9 9 6 14 20 23 21 17 14 10 11 9 11 12 13 11 14 16 16 10 9 11 9 8 9 11 12 13 16 15 16 16 14 13 20 20 20 15 13 11 10 11 10 13 14 10 8 9 9 9 8 7 7 6 5 4 4 4 5 5 5 4 3 1 1 3 4 4 5 6 6 7 8 9 11 13 12 13 11 12
12 16 16 14 18 21 19 22 18 17 25 23 21 16 18 20 18 13 11 12 15 10 12 13 14 13 10 4 5 8 8 9 8 10 10 10 10 6 3 14 19 20 21 19 14 11 11 9 9 9 14 14 10 10 10 9 9 8 7 6 6 5 4 4 5 5 5 4 3 0 1 3 2 4 5 5 5 5 6 7 8 9 9 11 10 11 14
14 15 17 20 13 12 14 25 22 25 29 26 23 21 20 17 15 11 11 14 12 12 14 14 13 13 12 14 15 15 16 15 15 18 20 19 17 16 19 16 16 20 25 20 13 12 10 10 8 7 6 12 12 11 10 9 9 9 8 6 5 5 5 5 4 5 4 2 1 2 3 3 4 4 5 4 5 5 5 7 8 8 9 10 9 13 14
13 21 9 1 8 13 14 17 20 21 18 21 23 24 21 15 15 13 9 8 8 10 11 11 9 14 14 15 13 12 9 13 13 12 13 11 13 13 14 14 15 17 17 17 13 15 11 9 9 7 6 9 19 11 10 9 9 9 8 7 5 6 5 4 5 5 5 2 2 5 5 3 1 2 3 4 4 6 5 6 7 8 10 8 10 13 13
10 19 12 18 16 17 18 18 21 21 20 20 19 21 19 20 17 11 6 9 6 8 10 14 16 18 14 15 15 13 9 12 16 21 20 16 18 22 23 19 17 20 21 17 15 15 14 10 9 8 8 6 8 11 11 10 10 9 8 7 6 5 5 4 3 3 3 2 2 4 4 3 2 2 2 2 4 5 6 7 8 9 8 10 11 12 13
18 19 13 20 21 23 19 18 17 18 20 22 17 16 16 17 15 12 11 7 6 9 10 17 18 17 13 13 14 12 14 15 15 17 20 20 12 13 15 19 22 18 15 18 16 14 13 12 10 9 8 8 8 9 10 10 10 9 8 7 7 7 6 4 2 1 3 4 5 4 4 4 4 5 2 2 4 5 5 6 7 7 8 9 11 11 11
21 18 18 14 15 13 16 15 16 18 19 19 21 21 18 12 10 11 9 10 14 12 18 17 15 14 12 15 17 17 13 12 13 16 21 19 18 19 19 17 22 19 16 14 16 14 12 11 10 10 9 9 9 10 9 9 9 10 8 8 6 6 5 3 2 1 3 3 4 5 3 2 1 3 6 5 5 7 8 7 7 8 8 10 10 10 10
14 14 16 16 17 18 18 20 18 17 17 18 18 15 12 13 18 18 20 17 13 12 15 15 13 16 16 14 12 15 15 16 19 16 19 20 23 17 10 13 12 15 13 17 16 13 11 10 11 10 10 9 9 8 9 8 9 9 8 7 7 6 4 3 3 3 4 4 6 6 5 5 4 3 6 10 7 6 6 13 16 17 15 10 12 11 9
17 11 16 14 19 22 20 19 17 18 16 15 17 18 20 19 18 19 19 20 16 14 15 14 13 15 19 17 14 14 12 14 17 19 23 24 19 20 20 17 15 17 12 11 12 13 12 11 10 10 10 10 10 9 9 9 8 8 8 7 6 5 5 4 4 4 3 4 5 5 4 3 4 7 8 2 5 6 11 14 17 18 17 19 20 19 15
25 20 16 6 12 19 17 17 17 16 10 12 17 19 19 20 20 20 19 18 19 19 19 17 15 19 20 15 12 18 16 12 14 15 20 24 22 17 16 17 19 18 15 14 15 14 12 12 11 10 10 9 9 9 9 8 8 7 7 7 9 6 6 4 5 4 3 5 5 4 2 3 4 4 5 11 12 7 8 12 17 16 17 19 20 19 20
21 13 15 15 16 16 14 20 19 17 16 14 14 15 17 18 18 18 18 17 17 21 20 18 17 17 18 14 14 17 16 16 17 19 20 23 20 20 15 17 20 18 16 13 12 12 12 12 11 11 11 10 9 9 8 7 8 8 8 8 9 8 7 6 5 5 4 4 4 3 2 2 2 2 4 4 5 13 17 20 19 13 14 18 20 21 21
20 19 19 17 15 17 16 16 17 16 17 14 13 11 14 16 18 16 19 19 18 16 18 18 17 15 15 15 13 12 11 14 14 17 20 22 12 10 18 22 17 12 13 12 12 13 13 14 13 12 11 10 9 9 8 8 7 8 9 10 12 9 8 7 6 4 4 5 4 2 0 1 1 2 2 3 3 3 6 12 15 17 17 19 20 21 19
14 15 15 18 19 21 19 18 18 14 18 15 16 18 18 18 18 16 15 14 15 14 16 18 18 13 10 12 11 12 15 13 15 20 27 27 26 20 11 14 20 22 20 15 12 13 15 14 12 12 12 10 9 8 8 8 8 8 8 8 6 7 9 6 6 6 5 5 4 1 0 1 1 2 2 3 2 2 3 4 6 8 10 12 15 19 16
20 17 13 19 22 20 21 19 21 21 22 23 23 22 19 14 12 12 13 13 12 11 12 13 12 11 13 11 14 12 13 19 22 24 30 30 17 18 24 26 25 24 14 13 14 13 11 12 12 12 11 10 9 9 8 9 8 9 8 7 7 6 5 6 5 5 6 5 3 2 1 1 1 2 3 2 4 3 4 4 5 7 8 9 9 12 18
23 23 23 23 25 24 24 23 23 24 25 22 18 14 10 13 14 14 16 18 18 15 12 9 9 13 15 14 15 17 18 19 19 25 31 24 22 20 24 26 24 22 16 13 12 12 11 12 13 12 10 9 9 9 9 9 11 12 12 9 7 5 5 5 4 5 6 6 4 0 1 1 1 2 2 2 3 2 4 4 5 5 6 8 9 11 12
18 18 20 22 23 25 26 26 25 25 24 22 21 21 17 16 17 17 18 18 14 15 16 13 11 12 14 15 17 18 20 23 26 22 22 25 21 27 23 21 20 13 11 12 13 12 13 12 12 13 12 11 10 10 9 9 10 11 10 8 8 7 8 6 6 6 7 6 2 4 2 1 1 1 3 2 2 3 5 4 5 6 7 7 7 6 10
16 15 17 17 19 19 20 23 21 21 21 21 22 23 24 21 23 23 23 20 14 15 14 13 15 17 15 18 19 16 13 12 15 21 25 25 22 21 19 24 21 18 13 15 13 13 12 11 10 11 11 10 11 10 9 9 8 8 8 9 7 12 13 14 9 9 8 6 4 1 0 1 1 2 3 2 2 3 3 3 4 5 6 6 6 6 9
25 26 26 23 21 22 23 20 20 21 21 19 18 20 20 21 22 23 23 19 15 15 15 15 14 16 18 12 10 11 12 14 16 22 26 26 24 18 19 19 19 17 15 15 14 13 11 13 13 10 11 11 10 9 9 9 9 9 9 6 8 6 9 13 8 8 7 6 3 1 1 0 1 1 1 2 2 4 4 4 5 5 5 6 7 7 9
17 17 17 17 18 18 19 17 18 20 20 23 23 22 21 17 18 20 20 18 17 15 14 15 16 15 10 13 15 14 14 15 18 21 23 23 25 17 13 13 16 21 19 14 13 13 14 14 13 11 11 11 11 10 9 8 8 8 8 8 6 7 5 8 10 8 7 6 3 1 1 1 0 1 1 2 3 4 3 4 4 4 5 6 6 7 8
14 14 18 21 20 19 21 22 19 19 18 18 17 17 19 18 17 18 19 18 16 13 14 15 15 13 14 15 16 18 20 20 18 20 24 24 25 21 13 13 15 17 14 12 12 10 10 11 12 12 12 11 11 10 9 8 8 12 11 8 8 7 8 7 8 7 7 5 4 2 1 0 0 0 2 3 2 3 4 4 5 6 5 6 6 6 11
13 16 18 19 21 22 22 20 19 19 19 21 20 18 17 17 17 19 19 19 18 17 17 15 13 15 16 17 19 22 25 27 27 26 24 23 24 22 19 21 21 15 13 9 8 8 9 11 10 12 12 10 9 8 8 8 8 13 9 9 8 8 9 8 7 7 6 4 3 2 1 0 1 1 2 1 1 3 3 4 4 5 5 6 7 7 8
15 16 17 18 21 24 24 22 20 21 20 19 19 19 20 19 19 18 20 21 19 14 8 11 13 15 18 20 20 22 22 18 20 22 23 23 22 19 19 20 20 17 15 10 5 8 10 10 14 15 10 9 8 8 8 8 9 12 9 9 8 7 7 7 8 6 5 4 3 2 1 1 1 1 1 1 2 2 3 3 4 4 5 5 5 7 7
15 13 15 17 20 23 26 23 22 21 20 20 20 19 19 20 21 20 17 15 10 11 14 15 15 17 20 24 22 18 16 19 20 21 22 21 20 20 23 20 18 19 16 18 13 10 10 11 17 18 11 8 8 9 9 12 10 8 8 8 8 8 8 8 6 7 4 3 3 2 2 2 0 1 2 1 2 3 3 4 5 4 5 4 5 5 7
22 18 17 18 19 24 27 26 23 22 24 26 23 20 19 18 15 14 12 10 12 13 15 18 21 19 14 12 13 15 15 16 19 21 22 24 22 24 22 23 16 12 19 19 14 12 9 15 21 12 8 8 8 8 10 13 10 10 8 8 8 8 8 8 7 7 6 4 4 2 1 1 0 0 1 2 2 3 4 4 4 5 4 4 4 4 6
23 21 14 13 16 20 24 26 24 20 19 20 21 20 16 11 9 6 5 4 3 8 11 11 12 16 20 19 14 14 18 19 20 22 22 21 21 23 22 20 19 22 19 14 14 12 14 15 11 9 8 9 10 9 11 12 9 9 8 8 8 8 7 7 7 7 6 6 4 3 2 1 0 0 1 2 2 3 4 5 4 5 5 4 4 5 5
18 18 20 20 19 20 20 23 22 19 15 12 12 16 11 4 4 5 5 7 6 8 11 14 16 15 16 17 17 14 17 20 19 21 22 20 18 17 17 11 8 11 14 18 13 11 15 18 12 8 8 9 9 8 7 10 8 7 7 9 8 7 7 7 6 7 5 5 4 4 3 1 0 1 1 2 2 3 4 4 4 5 4 4 4 5 6
20 20 20 18 20 19 20 21 21 16 8 7 7 6 4 6 6 8 8 8 8 9 12 14 15 15 16 16 17 17 17 17 19 20 20 20 21 20 21 15 5 9 12 11 11 12 15 11 10 10 8 9 9 9 8 10 6 6 6 7 8 8 7 6 6 6 7 6 6 4 3 1 0 0 1 1 2 3 4 4 4 4 4 5 5 4 4
22 22 22 21 20 20 21 19 13 8 4 5 5 2 2 3 7 9 9 10 11 10 12 10 13 17 17 17 18 18 18 19 19 19 20 22 22 16 15 9 9 10 15 16 15 14 11 10 8 7 9 9 9 12 11 8 7 6 6 6 6 7 7 7 6 5 5 4 3 3 3 1 1 0 0 1 2 3 4 3 2 3 3 5 4 4 5
23 23 22 20 19 20 16 10 5 3 4 6 6 4 4 6 9 10 10 11 12 13 12 14 17 19 20 20 19 18 16 18 18 16 13 12 8 6 16 14 12 12 19 12 12 9 10 8 8 7 10 11 11 15 12 8 7 10 8 7 6 5 5 6 6 5 5 5 5 4 2 2 1 1 1 1 1 2 2 2 2 5 4 4 4 5 4
23 20 18 18 17 12 8 6 4 5 7 7 7 7 7 6 6 9 11 12 12 12 15 16 16 17 18 20 20 18 16 17 15 13 14 9 14 15 8 9 14 15 17 12 11 12 10 7 7 11 15 17 18 14 8 6 7 9 9 8 6 6 6 6 5 5 5 4 5 4 5 3 1 2 3 2 2 2 2 3 3 3 2 4 5 4 4
21 19 20 19 15 11 10 9 9 8 6 6 9 10 9 9 10 9 10 11 11 11 12 14 15 16 15 14 14 16 16 13 13 15 18 20 15 6 6 7 12 11 14 14 11 8 7 8 13 17 16 19 16 13 8 6 6 7 6 6 6 6 6 5 6 5 4 4 3 3 4 3 3 2 3 2 3 3 3 3 3 4 4 4 4 5 5
20 20 18 16 12 10 8 7 7 6 8 10 13 13 12 10 11 12 12 13 13 11 10 12 13 14 15 16 16 16 16 14 13 11 5 5 12 13 14 12 10 8 15 16 13 11 8 15 19 18 18 17 14 9 6 6 6 6 6 7 6 7 5 5 4 5 5 4 4 3 2 1 2 3 4 4 3 3 4 5 5 4 3 3 4 5 5
17 16 16 15 12 9 9 8 9 9 10 11 11 9 9 10 10 10 12 15 15 15 14 13 13 13 14 16 19 18 17 13 11 8 8 12 16 13 14 17 15 17 13 11 10 8 9 12 14 18 17 14 9 10 8 7 7 6 8 6 6 5 6 5 4 6 4 4 4 4 3 4 3 4 4 3 2 3 3 3 5 4 3 4 3 5 5
15 15 13 13 14 14 13 13 13 11 11 9 7 7 7 8 12 12 13 15 16 16 15 13 13 13 12 10 8 8 10 18 20 8 7 11 10 11 12 9 11 14 15 11 12 11 17 17 19 18 16 12 10 8 6 7 7 9 8 6 5 6 5 5 4 4 4 3 2 3 2 4 3 4 4 3 4 4 4 4 5 4 3 3 4 5 5
16 15 12 11 13 15 14 11 11 10 8 8 9 8 8 10 12 12 12 15 18 15 13 14 14 13 11 9 8 5 10 10 6 11 11 11 12 11 11 14 19 17 13 10 9 8 14 18 17 17 15 9 7 6 6 6 5 6 5 5 5 5 5 5 4 4 4 4 3 3 3 4 4 5 4 4 4 4 4 5 5 4 4 4 4 6 5
13 11 11 10 9 10 9 8 9 7 6 6 6 6 7 11 12 8 8 9 10 11 11 10 10 9 8 7 8 9 8 14 16 15 13 12 12 11 11 10 10 13 11 9 10 9 11 17 16 13 9 7 6 6 8 5 5 5 5 6 5 4 5 5 5 5 3 4 3 3 4 5 5 5 5 4 4 4 5 5 4 5 7 6 6 5 5
8 8 7 8 8 8 10 9 9 8 7 8 8 8 7 8 9 8 8 9 9 11 10 12 10 8 8 8 9 10 12 12 12 12 12 12 11 12 11 10 11 10 10 9 9 9 8 7 6 7 7 6 5 5 5 5 5 5 5 4 4 5 5 6 5 4 3 5 4 4 5 4 4 4 4 5 4 4 5 5 5 5 5 5 5 4 5
8 7 7 7 7 8 8 8 11 9 8 8 8 8 8 7 8 9 9 9 8 10 12 13 11 7 7 8 9 9 10 11 11 10 10 12 11 10 11 12 10 10 9 8 8 7 7 7 7 7 6 6 4 4 6 6 5 5 4 5 4 4 4 5 5 4 4 4 5 5 5 5 4 5 4 5 5 5 5 5 5 5 5 4 5 4 5
Wind_Direction
240 245 250 253 229 223 226 205 211 216 212 201 205 225 236 227 216 236 245 252 232 252 254 260 270 273 266 266 268 262 259 256 230 210 208 214 220 204 198 212 207 202 200 200 196 190 189 176 175 165 152 148 140 134 135 141 141 149 153 154 169 176 188 196 213 220 263 286 314 322 329 324 316 313 312 311 311 310 306 301 298 299 299 297 300 297 290
239 245 247 248 241 233 239 217 225 229 223 211 212 231 234 231 236 243 259 259 259 256 257 260 275 277 268 260 264 271 254 237 233 231 229 222 218 202 210 212 209 206 206 199 194 189 183 182 173 164 157 154 150 146 145 146 146 151 148 162 166 179 184 196 207 237 275 311 338 348 334 322 314 313 311 309 307 306 301 299 300 298 292 293 289 290 292
250 249 250 247 239 242 246 245 250 246 243 228 221 234 243 243 250 260 260 266 266 259 259 273 292 283 284 281 278 272 269 266 260 260 246 230 223 213 217 215 211 208 203 197 189 187 191 185 178 165 156 144 141 141 145 147 151 154 150 160 173 170 187 184 206 261 329 0 1 344 328 314 309 308 309 306 302 298 299 302 298 292 294 294 293 299 302
256 251 253 250 231 232 239 248 252 252 246 237 237 238 237 246 253 256 268 264 252 257 268 279 250 264 266 263 266 268 269 270 272 270 267 248 229 219 218 214 207 202 196 194 191 194 191 183 168 161 154 151 148 150 150 153 152 148 151 164 165 175 176 174 207 26 16 11 354 331 317 306 305 304 299 298 297 301 304 303 296 293 293 296 304 306 305
250 253 258 207 189 154 255 233 235 243 258 245 244 251 252 227 233 250 251 251 258 267 275 272 260 233 229 258 260 266 267 262 254 259 262 258 235 226 217 206 206 200 198 196 195 193 181 177 170 165 149 147 155 153 152 152 139 151 158 163 165 167 161 166 118 56 31 7 344 316 306 301 297 294 292 292 301 309 304 296 296 300 302 304 305 306 304
242 246 240 125 149 225 233 242 249 223 242 247 253 253 253 246 198 234 243 260 268 273 271 264 267 272 262 257 259 253 254 262 259 256 253 251 241 235 215 208 204 201 197 195 192 186 177 166 150 137 152 143 143 141 136 139 149 155 159 161 158 159 150 131 84 54 29 14 321 303 297 294 292 293 289 300 308 300 296 301 302 299 302 304 304 303 301
243 157 104 187 219 232 241 355 238 231 238 239 245 258 258 254 247 242 246 255 263 263 265 266 269 269 269 270 268 267 224 210 242 255 255 234 232 233 216 204 199 194 189 180 167 160 159 152 146 144 140 138 132 134 144 147 153 151 158 151 152 151 135 107 85 55 31 341 304 294 292 288 286 284 299 310 310 307 310 309 308 306 307 305 301 295 292
27 123 195 234 232 217 9 279 257 253 237 242 279 273 253 246 249 250 246 248 255 260 266 271 264 262 267 273 273 270 174 210 230 246 248 243 233 227 214 202 197 180 176 178 177 167 139 136 145 147 142 143 136 140 141 145 148 152 149 149 146 142 124 107 94 64 40 313 292 285 287 285 281 306 320 319 314 310 308 303 298 299 300 297 295 294 291
233 220 221 236 308 309 282 281 259 226 194 232 227 258 261 249 246 244 244 248 252 259 264 262 263 266 279 284 276 256 174 228 230 232 241 239 234 218 214 194 193 183 176 167 152 129 136 141 143 148 141 135 131 133 141 146 145 148 148 148 145 135 120 116 102 97 332 285 280 279 280 282 302 321 327 319 313 312 308 306 305 303 299 296 292 291 290
220 238 239 245 226 238 238 237 253 212 185 210 207 212 269 248 256 245 235 241 253 255 252 252 257 316 297 273 271 271 226 217 237 217 229 240 218 196 165 138 137 142 141 122 121 137 139 143 138 133 138 137 134 134 140 146 148 147 151 147 142 131 126 126 118 138 241 267 269 273 272 285 312 319 313 308 304 313 309 308 304 300 299 293 285 283 289
229 240 238 235 229 238 221 249 252 224 169 167 137 160 254 250 250 250 241 240 241 246 248 253 238 163 249 254 261 264 256 198 214 213 222 208 176 163 160 156 149 147 140 140 139 131 137 138 147 138 136 136 132 134 141 148 149 148 153 146 140 135 131 130 127 174 237 249 257 264 278 285 304 307 312 310 304 306 300 298 296 297 296 292 290 285 285
229 237 238 242 218 249 226 246 256 174 147 119 104 262 261 251 247 237 236 232 236 234 235 234 207 205 235 247 254 261 215 185 197 192 179 162 154 147 140 144 146 131 122 125 138 144 149 148 139 142 138 137 139 137 145 147 147 152 150 142 135 126 126 128 144 208 238 240 244 252 269 280 284 291 301 304 308 309 301 296 296 297 286 290 296 299 298
228 227 246 255 261 251 253 246 122 139 135 126 179 241 251 253 172 212 198 218 224 218 216 201 203 215 217 228 238 96 134 94 95 69 120 156 150 145 140 130 129 129 144 147 151 153 142 137 141 138 142 140 139 141 144 143 148 147 138 131 126 126 125 140 174 217 242 234 240 251 248 267 295 304 307 311 309 304 302 299 295 295 292 299 300 303 304
224 228 231 233 245 223 233 230 147 153 96 217 224 237 243 256 190 216 198 211 216 204 208 198 210 223 223 227 95 154 153 172 143 147 130 115 92 79 105 138 134 130 128 115 105 106 122 135 139 144 147 141 138 143 140 141 144 135 129 129 124 127 143 156 192 220 226 242 246 239 250 279 319 315 308 305 298 298 298 297 296 298 302 305 310 302 302
227 235 239 236 243 199 222 161 153 207 202 235 232 249 265 265 239 222 223 219 219 200 210 207 212 228 227 204 202 191 181 154 167 160 162 155 157 148 138 137 141 141 130 142 139 132 138 139 145 153 143 133 138 138 135 141 134 131 127 125 126 138 150 174 201 213 231 229 239 231 235 8 334 312 314 315 309 302 296 296 291 300 311 304 303 296 313
203 210 207 219 210 224 183 161 194 195 213 226 235 235 249 252 249 239 230 223 226 197 199 208 221 227 220 197 198 198 193 181 155 151 152 131 99 119 29 140 151 149 125 124 125 132 140 143 147 155 150 136 140 134 134 135 130 124 123 122 131 146 166 187 194 220 223 226 230 222 67 32 349 323 320 310 304 300 299 298 294 295 293 303 300 312 325
205 222 216 225 218 224 172 191 211 211 212 221 232 235 236 238 245 239 232 236 223 195 209 215 209 222 212 207 199 192 200 184 171 170 179 165 166 160 160 157 153 154 144 145 133 135 144 139 144 141 158 135 133 131 138 138 139 131 127 128 140 157 169 182 204 213 220 214 196 87 57 43 1 330 319 318 310 306 300 298 298 297 300 300 307 326 323
219 245 240 54 215 221 214 212 218 226 223 222 230 238 245 242 245 242 227 228 215 203 204 203 221 221 213 206 209 216 201 186 184 140 127 117 122 126 137 137 154 141 103 111 131 136 137 142 139 148 143 148 131 139 136 137 134 127 129 136 156 170 182 194 209 205 190 167 87 57 50 37 347 289 285 298 293 297 292 297 301 296 299 300 324 328 325
210 245 198 224 214 221 219 217 223 229 226 226 221 235 241 247 246 244 214 233 210 198 193 204 219 226 211 208 210 200 182 185 177 169 163 159 163 166 170 155 136 143 144 139 148 142 142 150 144 142 135 127 119 130 136 137 128 125 132 147 150 158 182 201 218 201 150 117 92 62 42 17 328 284 285 269 282 279 296 308 301 298 292 323 327 325 327
222 242 205 219 222 228 221 213 222 230 234 239 235 228 232 241 252 250 238 214 217 195 198 211 220 227 213 202 205 192 194 192 181 178 170 156 162 182 124 139 137 133 148 149 148 148 144 151 147 139 135 129 128 128 132 129 123 127 141 155 151 159 173 187 191 112 85 67 75 73 51 10 332 326 297 286 287 295 302 302 294 300 313 326 329 326 323
237 245 246 250 257 250 247 238 227 225 227 231 237 239 240 242 257 253 240 206 223 204 219 219 219 225 221 209 202 195 193 186 180 185 173 169 162 150 156 155 155 162 159 148 150 144 138 140 140 137 133 130 134 134 129 123 129 141 149 149 144 151 168 170 134 97 76 60 57 60 52 51 279 266 289 297 296 295 310 305 309 321 323 330 326 323 320
250 234 235 225 246 247 244 242 236 232 233 238 241 244 243 231 237 242 246 240 229 226 228 227 212 218 228 218 197 197 196 192 189 179 163 143 148 160 136 137 142 128 134 137 140 135 132 137 137 135 134 133 136 132 122 128 143 147 145 140 145 147 154 145 128 99 70 53 51 44 21 357 341 306 260 271 292 300 302 330 336 338 340 336 335 332 325
252 240 242 238 244 248 247 249 242 236 231 233 237 239 241 236 231 234 237 244 243 235 236 230 215 218 227 223 196 199 193 200 188 181 162 153 159 151 147 135 144 150 152 134 122 126 133 138 136 135 135 140 141 134 133 143 155 156 149 140 137 141 142 141 132 103 95 73 58 48 24 2 347 332 331 293 249 300 337 343 341 341 345 344 343 343 344
255 258 268 243 250 255 260 258 258 256 242 231 239 240 240 240 239 236 236 232 235 240 237 231 216 223 229 223 180 201 202 180 168 174 178 163 148 149 155 153 150 146 151 156 149 142 141 142 138 138 133 141 138 135 140 151 159 162 165 149 141 148 148 152 119 111 99 95 80 58 35 2 339 343 348 333 330 312 343 357 346 342 342 344 346 348 348
261 254 256 253 254 261 267 273 270 262 256 246 241 238 239 242 242 241 241 238 231 233 236 235 226 220 224 219 194 200 190 181 181 175 153 149 156 156 155 144 150 154 158 154 145 141 142 140 138 138 138 142 138 137 142 151 160 164 171 152 135 137 151 141 127 112 103 93 80 78 53 348 330 331 334 343 330 323 328 335 341 345 345 349 349 350 349
259 265 266 266 261 263 267 270 263 261 260 253 253 246 249 246 247 244 240 235 237 230 232 234 235 221 209 209 198 192 166 169 163 155 154 155 155 144 163 166 155 136 137 139 140 141 141 142 139 139 137 138 140 143 147 156 160 165 152 142 129 141 141 146 128 118 107 93 89 77 24 310 268 293 296 281 278 295 310 321 334 338 342 347 347 346 348
273 274 286 289 280 275 265 260 270 274 279 276 269 265 258 257 250 246 246 242 237 232 228 227 229 219 194 199 185 171 168 146 148 168 170 159 171 176 147 105 134 138 136 132 132 141 140 139 138 140 136 138 137 138 145 145 151 149 139 134 136 134 136 132 117 115 105 94 94 81 128 257 272 288 285 277 293 292 290 305 310 311 312 322 331 338 344
272 270 259 263 266 265 265 261 263 263 262 264 266 264 262 258 256 253 250 246 243 237 234 225 212 180 184 179 163 163 151 158 174 173 166 182 145 106 140 144 138 140 138 133 137 139 137 137 137 130 127 131 135 141 143 151 154 151 141 139 135 137 134 126 114 111 101 102 93 106 188 264 306 304 295 298 307 300 301 298 288 292 303 313 314 313 338
265 266 264 260 265 268 271 271 269 268 269 268 267 265 263 259 253 245 246 241 239 234 230 223 201 190 186 181 171 172 176 179 174 176 180 129 124 148 135 138 135 133 129 128 127 137 137 137 137 129 131 136 138 144 149 155 159 146 142 141 136 133 132 125 121 104 105 97 101 152 327 15 323 298 290 296 295 303 299 295 298 293 302 307 319 331 340
265 263 263 263 263 264 267 266 264 265 265 265 263 262 255 255 259 253 248 246 237 227 222 212 186 194 186 182 186 180 177 183 187 176 153 147 153 141 140 129 113 100 105 125 146 149 146 143 140 134 142 148 147 145 149 153 144 144 136 140 132 133 136 134 121 115 100 93 91 65 55 315 295 289 285 301 307 312 303 307 306 311 315 317 327 328 339
285 283 279 280 280 279 274 274 274 272 271 266 263 262 260 255 253 255 252 245 232 229 221 200 197 200 191 193 194 187 180 165 153 154 146 143 144 150 146 148 147 166 163 161 152 149 142 138 131 136 140 137 140 144 151 152 146 137 130 142 153 140 135 126 119 108 106 98 89 86 316 268 275 297 323 330 335 317 311 303 305 311 313 317 320 327 328
285 282 280 278 276 276 274 273 273 271 268 269 272 271 269 261 253 249 250 248 235 225 220 207 202 200 201 185 146 146 150 148 148 143 141 144 143 153 156 161 151 141 139 135 143 148 141 139 138 137 134 139 139 148 152 151 148 140 144 153 142 120 127 122 106 108 100 105 117 125 204 225 290 334 345 341 326 320 318 317 320 317 315 320 322 320 321
326 316 306 301 297 290 286 284 283 279 276 271 266 264 257 245 240 243 243 239 233 222 215 208 206 198 157 145 153 144 138 137 143 147 152 159 161 150 152 153 150 128 130 143 148 153 149 140 137 132 137 139 147 152 160 156 146 137 138 139 129 122 121 120 119 108 108 109 122 161 171 247 257 351 311 327 321 313 297 300 302 307 311 309 306 312 308
321 306 302 301 293 290 288 287 283 282 282 279 274 267 266 263 254 248 247 245 241 225 208 208 198 169 154 148 142 140 133 132 147 163 168 162 161 160 140 140 134 115 102 104 106 106 103 112 125 133 138 139 148 151 152 146 140 128 135 138 130 127 112 108 108 110 114 122 133 121 129 166 41 338 317 323 314 300 306 311 309 312 311 310 311 316 322
308 303 302 300 298 294 290 284 283 281 279 278 276 273 268 262 256 253 247 244 239 225 214 199 172 160 155 150 149 154 159 167 169 164 162 159 158 153 139 115 110 107 116 113 122 119 120 124 123 127 133 136 142 147 146 143 140 124 132 134 133 122 126 110 113 115 128 130 131 127 77 100 330 325 333 334 303 298 308 308 311 313 319 325 325 330 332
318 313 312 310 305 299 294 291 287 282 279 275 272 273 273 271 267 261 252 244 239 228 195 165 157 153 160 163 164 168 172 162 149 150 151 151 150 144 136 126 125 125 121 112 99 120 130 128 132 132 130 136 138 140 139 136 132 128 131 132 126 120 114 105 110 105 109 119 121 124 146 104 34 325 305 300 305 307 301 305 303 308 314 317 320 331 327
310 305 300 300 300 298 294 289 283 281 279 278 277 275 272 268 265 265 260 244 211 177 169 161 156 163 176 180 176 164 148 149 152 150 147 147 146 144 144 137 131 135 138 134 158 150 140 137 139 135 129 127 132 135 142 146 134 135 132 127 126 122 118 113 116 116 120 116 121 123 113 84 31 302 293 305 313 304 306 305 303 307 318 322 330 324 325
303 305 300 296 298 297 291 285 283 281 279 276 272 267 267 271 275 266 246 216 199 182 170 170 175 176 153 110 116 135 139 138 141 140 143 148 150 148 150 149 149 137 152 159 145 146 142 141 141 131 128 128 132 136 143 145 139 134 131 132 126 124 121 126 126 127 126 135 131 117 116 138 176 268 299 306 298 296 306 302 303 313 322 330 327 322 320
306 309 298 284 291 293 291 289 283 278 275 271 273 277 278 274 265 241 219 202 165 146 144 140 128 130 145 144 131 128 139 144 144 144 145 146 151 150 158 155 139 147 129 127 129 132 140 143 138 133 129 131 132 127 137 142 143 132 130 124 123 119 127 129 135 140 140 137 123 121 114 141 182 252 292 291 296 305 307 305 310 314 328 328 331 324 324
300 298 298 302 298 295 295 287 283 278 272 261 261 265 258 192 172 133 118 103 102 129 131 131 136 138 142 142 138 134 140 144 145 142 143 141 134 124 108 75 75 93 106 124 127 125 134 136 131 126 129 132 129 127 130 142 145 130 128 121 119 120 122 127 130 133 137 130 134 124 121 155 193 225 279 283 309 304 307 307 310 316 325 321 315 314 318
301 298 297 296 290 291 291 287 281 275 281 286 270 249 197 177 143 127 128 123 119 123 131 139 137 138 142 134 128 123 122 126 136 141 137 132 134 137 137 119 113 119 135 133 126 127 133 135 135 134 129 131 129 132 129 145 138 116 116 118 124 125 130 137 142 144 147 148 143 149 157 157 150 316 272 302 295 298 296 296 303 315 315 316 320 319 317
308 303 295 291 287 286 288 285 280 293 333 348 354 21 69 107 134 130 122 117 117 118 121 119 124 129 123 115 115 117 124 133 139 144 147 150 153 146 126 109 140 135 130 119 121 126 130 132 129 127 130 131 128 138 137 135 134 120 112 119 120 127 130 137 134 135 129 128 133 140 163 163 161 214 280 296 304 300 292 305 309 322 311 314 316 318 316
310 305 300 290 278 281 286 291 309 340 26 13 12 23 67 92 105 109 113 118 122 122 113 113 112 112 116 117 117 120 127 134 134 129 92 30 27 145 143 139 140 134 133 125 128 121 131 134 132 127 128 126 131 138 135 132 130 118 113 114 116 121 123 127 128 131 133 141 151 164 159 168 177 201 234 274 278 285 292 304 310 312 309 312 319 318 316
302 296 290 293 303 317 329 336 348 24 32 19 21 32 47 59 79 111 120 120 116 116 121 121 118 120 123 125 126 129 135 141 138 132 121 91 72 48 35 105 132 132 132 123 127 125 127 123 125 125 122 126 132 135 129 124 124 114 108 126 131 131 127 127 128 140 153 166 171 174 175 178 184 208 224 248 263 280 285 290 285 295 293 311 310 304 308
305 304 307 315 331 353 359 4 7 5 14 34 45 42 47 61 67 69 84 92 96 99 107 112 119 122 125 123 128 132 136 135 137 137 132 117 103 118 135 115 122 124 133 132 121 123 120 124 129 130 130 133 134 134 126 123 123 121 116 120 129 129 134 141 152 161 167 173 165 167 171 192 199 224 215 240 236 263 277 287 287 293 302 304 311 315 313
307 308 313 322 345 1 2 16 11 26 43 61 58 43 39 49 58 59 62 74 79 78 84 99 107 113 116 115 114 113 105 83 34 14 56 126 136 137 146 133 112 116 126 127 104 117 112 127 131 131 131 133 132 126 117 119 118 119 115 128 133 135 137 144 153 160 165 167 174 173 174 175 182 227 225 230 240 249 260 275 280 287 281 284 291 290 296
312 315 326 335 341 356 14 28 37 46 51 51 44 37 24 25 44 49 63 71 77 80 82 83 90 98 114 126 133 132 123 93 55 46 58 83 82 98 119 121 120 126 125 122 117 123 131 132 131 131 130 131 122 100 110 110 115 119 123 131 137 140 143 146 155 159 159 159 163 173 187 200 211 221 234 247 257 256 259 268 277 278 287 291 294 295 299
324 330 339 352 16 32 48 54 57 51 41 38 43 49 31 39 55 58 65 77 82 80 79 79 85 94 100 90 69 74 114 125 112 79 81 89 88 106 119 128 126 124 117 107 103 109 122 125 128 129 128 124 116 114 115 123 116 118 125 138 141 143 142 143 137 150 159 166 161 167 203 226 241 233 236 231 241 241 249 253 265 276 284 284 287 293 293
336 341 349 14 31 41 47 49 51 50 46 36 40 46 48 60 60 61 65 79 84 81 80 84 83 82 71 60 58 54 43 16 78 132 139 124 122 118 113 116 122 122 117 106 112 114 128 128 126 126 125 120 117 118 121 121 122 133 137 139 139 141 140 145 147 146 154 170 178 185 204 220 228 222 233 236 245 247 250 255 254 256 265 272 277 280 282
346 352 11 7 10 15 12 26 31 29 20 39 43 55 66 79 72 49 65 67 75 84 77 74 78 74 56 55 56 57 49 84 87 90 98 96 98 101 112 117 120 124 118 113 114 114 122 120 121 122 119 103 106 114 109 121 130 133 131 129 128 127 135 138 150 156 160 171 184 203 212 221 226 228 228 235 243 250 246 248 252 255 259 265 266 275 275
347 352 359 9 9 13 15 24 38 22 15 26 36 36 35 56 69 73 70 85 91 93 92 92 79 60 62 73 69 74 84 79 79 94 100 109 108 109 105 114 117 119 115 112 112 118 122 122 117 116 112 117 119 122 124 131 132 131 134 133 137 142 150 151 156 167 178 183 198 207 218 226 224 233 235 242 247 257 255 259 255 254 249 252 254 258 265
350 4 359 10 26 26 19 26 32 26 29 37 28 36 35 48 68 78 77 70 74 98 108 108 90 61 63 74 77 90 95 100 105 101 101 109 109 108 109 110 109 111 111 111 116 113 111 111 111 115 119 121 119 117 123 123 118 124 121 127 129 137 151 152 160 170 184 192 194 211 224 223 215 228 243 239 242 246 257 252 255 256 260 257 258 259 268